CYNA

Natashquan Airport

ICAO Code CYNA
IATA Code YNA
Name Natashquan Airport
Location Natashquan, Quebec, CA
Elevation 39 Feet / 11.9 Meters
Latitude 50.19000000
Longitude -61.78888889
METAR CYNA 130410Z AUTO 10005KT 9SM BKN005 OVC015 11/10 A2992 RMK SLP133
Extra information Display Charts
Runway Length Width Surface Elevation
14 4495 ft 100 ft ASP 35 ft
32 4495 ft 100 ft ASP 39 ft